SCP
0 0 0 0 0 0 0 0 0 0 0 0 0 0 0 0 0 0 0 0 0 0 0 0 0 0 0 0 0 0 0 0 0 0 0 0 0 0 0 0 0 0 0 0
0 0 0 0 0 0 0 0 0 0 0 0 0 0 0 0 0 0 0 0 0 0 0 0 0 0 0 0 0 0 0 0 0 0 0 0 0 0 0 0 0 0 0 0
0 0 0 0 0 0 0 0 0 0 0 0 0 0 0 0 0 0 0 0 0 0 0 0 0 0 0 0 0 0 0 0 0 0 0 0 0 0 0 0 0 0 0 0
0 0 0 0 0 0 0 0 0 0 0 0 0 0 0 0 0 0 0 0 0 0 0 0 0 0 0 0 0 0 0 0 0 0 0 0 0 0 0 0 0 0 0 0
0 0 0 0 0 0 0 0 0 0 0 0 0 0 0 0 0 0 0 0 0 0 0 0 0 0 0 0 0 0 0 0 0 0 0 0 0 0 0 0 0 0 0 0
0 0 0 0 0 0 0 0 0 0 0 0 0 0 0 0 0 0 0 0 0 0 0 0 0 0 0 0 0 0 0 0 0 0 0 0 0 0 0 0 0 0 0 0
0 0 0 0 0 0 0 0 0 0 0 0 0 0 0 0 0 0 0 0 0 0 0 0 0 0 0 0 0 0 0 0 0 0 0 0 0 0 0 0 0 0 0 0
0 0 0 0 0 0 0 0 0 0 0 0 0 0 0 0 0 0 0 0 0 0 0 0 0 0 0 0 0 0 0 0 0 0 0 0 0 0 0 0 0 0 0 0
0 0 0 0 0 0 0 0 0 0 0 0 0 0 0 0 0 0 0 0 0 0 0 0 0 0 0 0 0 0 0 0 0 0 0 0 0 0 0 0 0 0 0 0
0 0 0 0 0 0 0 0 0 0 0 0 0 0 0 0 0 0 0 0 0 0 0 0 0 0 0 0 0 0 0 0 0 0 0 0 0 0 0 0 0 0 0 0
0 0 0 0 0 0 0 0 0 0 0 0 0 0 0 0 0 0 0 0 0 0 0 0 0 0 0 0 0 0 0 0 0 0 0 0 0 0 0 0 0 0 0 0
0 0 0 0 0 0 0 0 0 0 0 0 0 0 0 0 0 0 0 0 0 0 0 0 0 0 0 0 0 0 0 0 0 0 0 0 0 0 0 0 0 0 0 0
0 0 0 0 0 0 0 0 0 0 0 0 0 0 0 0 0 0 0 0 0 0 0 0 0 0 0 0 0 0 0 0 0 0 0 0 0 0 0 0 0 0 0 0
0 0 0 0 0 0 0 0 0 0 0 0 0 0 0 0 0 0 0 0 0 0 0 0 0 0 0 0 0 0 0 0 0 0 0 0 0 0 0 0 0 0 0 0
0 0 0 0 0 0 0 0 0 0 0 0 0 0 0 0 0 0 0 0 0 0 0 0 0 0 0 0 0 0 0 0 0 0 0 0 0 0 0 0 0 0 0 0
0 0 0 0 0 0 0 0 0 0 0 0 0 0 0 0 0 0 0 0 0 0 0 0 0 0 0 0 0 0 0 0 0 0 0 0 0 0 0 0 0 0 0 0
0 0 0 0 0 0 0 0 0 0 0 0 0 0 0 0 0 0 0 0 0 0 0 0 0 0 0 0 0 0 0 0 0 0 0 0 0 0 0 0 0 0 0 0
0 0 0 0 0 0 0 0 0 0 0 0 0 0 0 0 0 0 0 0 0 0 0 0 0 0 0 0 0 0 0 0 0 0 0 0 0 0 0 0 0 0 0 0
0 0 0 0 0 0 0 0 0 0 0 0 0 0 0 0 0 0 0 0 0 0 0 0 0 0 0 0 0 0 0 0 0 0 0 0 0 0 0 0 0 0 0 0
0 0 0 0 0 0 0 0 0 0 0 0 0 0 0 0 0 0 0 0 0 0 0 0 0 0 0 0 0 0 0 0 0 0 0 0 0 0 0 0 0 0 0 0
0 0 0 0 0 0 0 0 0 0 0 0 0 0 0 0 0 0 0 0 0 0 0 0 0 0 0 0 0 0 0 0 0 0 0 0 0 0 0 0 0 0 0 0
0 0 0 0 0 0 0 0 0 0 0 0 0 0 0 0 0 0 0 0 0 0 0 0 0 0 0 0 0 0 0 0 0 0 0 0 0 0 0 0 0 0 0 0
0 0 0 0 0 0 0 0 0 0 0 0 0 0 0 0 0 0 0 0 0 0 0 0 0 0 0 0 0 0 0 0 0 0 0 0 0 0 0 0 0 0 0 0
0 0 0 0 0 0 0 0 0 0 0 0 0 0 0 0 0 0 0 0 0 0 0 0 0 0 0 0 0 0 0 0 0 0 0 0 0 0 0 0 0 0 0 0
0 0 0 0 0 0 0 0 0 0 0 0 0 0 0 0 0 0 0 0 0 0 0 0 0 0 0 0 0 0 0 0 0 0 0 0 0 0 0 0 0 0 0 0
0 0 0 0 0 0 0 0 0 0 0 0 0 0 0 0 0 0 0 0 0 0 0 0 0 0 0 0 0 0 0 0 0 0 0 0 0 0 0 0 0 0 0 0
0 0 0 0 0 0 0 0 0 0 0 0 0 0 0 0 0 0 0 0 0 0 0 0 0 0 0 0 0 0 0 0 0 0 0 0 0 0 0 0 0 0 0 0
Wind_Speed
10 9 8 9 9 9 11 10 10 9 7 5 4 4 3 2 1 2 4 5 5 4 4 4 4 4 4 4 4 4 4 3 3 3 3 3 3 3 4 4 5 5 5 6
9 9 9 9 8 8 9 8 9 8 6 3 4 3 2 1 1 2 3 3 5 5 5 5 5 4 4 4 4 4 4 3 3 3 3 3 3 3 3 3 4 4 5 5
9 8 9 9 6 7 7 5 7 7 5 4 3 3 2 1 1 1 1 2 4 4 4 4 5 4 5 5 4 4 4 3 3 3 3 3 3 3 3 3 4 4 4 5
7 8 10 1 2 4 4 2 4 5 4 4 4 3 2 2 1 1 1 0 2 3 4 4 4 4 4 5 5 4 4 3 3 3 3 3 3 3 3 3 3 4 4 4
6 9 6 3 1 4 4 2 4 5 4 4 3 1 2 4 3 2 2 1 1 2 3 4 4 4 4 4 4 4 4 3 3 3 3 3 3 3 3 3 4 4 4 5
7 9 7 1 4 4 5 3 4 5 4 4 3 3 2 4 3 2 2 1 1 2 3 4 4 4 4 4 4 4 3 3 3 3 3 3 2 2 2 3 3 4 4 4
7 7 1 4 6 4 3 3 6 5 4 4 4 5 4 3 2 2 2 1 0 2 3 3 4 4 4 4 4 3 3 2 2 2 2 3 2 2 2 3 3 4 4 4
5 5 1 6 4 3 4 5 5 4 4 4 4 3 3 2 2 2 1 1 0 2 2 3 4 4 4 4 3 3 3 3 2 3 3 2 2 3 3 3 4 4 4 5
2 2 5 5 4 4 4 5 5 5 5 4 4 4 3 2 1 1 1 1 1 1 2 3 3 4 4 3 3 4 3 3 3 3 3 3 3 4 4 4 4 4 4 4
2 1 3 4 4 5 5 5 5 5 5 5 5 4 3 2 1 1 1 1 1 1 2 2 3 3 3 4 4 4 4 4 4 4 4 4 4 4 4 4 4 4 4 4
3 3 3 3 5 6 5 5 5 5 4 4 4 4 3 2 2 2 1 1 2 2 2 2 2 2 3 3 4 4 4 4 4 5 4 4 4 4 5 4 4 5 4 4
3 4 5 6 7 7 7 6 5 5 5 4 4 3 3 3 2 2 2 2 2 2 2 2 2 2 2 3 4 4 5 5 4 4 4 4 4 4 2 4 3 5 6 7
4 5 5 6 7 7 7 6 6 6 5 5 4 3 3 3 3 2 2 3 3 3 2 2 2 3 3 3 4 5 5 4 4 4 4 5 4 4 4 4 5 7 7 7
4 5 5 5 6 6 6 6 6 5 5 5 4 3 3 3 3 3 3 3 3 3 3 3 3 3 3 3 4 5 6 5 5 5 5 5 4 4 4 4 4 4 5 7
4 5 5 5 6 6 5 5 5 5 4 4 4 4 4 4 4 4 4 3 3 3 3 3 3 3 3 3 4 5 5 4 4 4 4 4 4 4 4 5 4 4 3 3
5 5 5 5 5 6 6 5 5 5 4 4 4 4 4 4 4 4 3 3 3 3 3 3 3 3 3 4 4 4 4 3 4 4 4 4 4 4 4 4 4 4 4 2
5 5 6 6 7 7 6 6 5 4 4 4 4 4 4 4 4 4 4 3 3 3 3 3 3 3 3 4 5 4 4 3 4 4 4 4 4 4 4 4 4 4 4 2
6 6 6 7 7 7 7 6 4 4 4 4 5 4 4 4 4 4 4 4 4 3 3 3 3 3 3 3 3 4 4 3 4 4 4 3 4 4 4 4 4 5 4 3
5 5 6 6 7 7 7 6 5 5 4 4 4 4 4 4 4 4 4 4 4 4 3 2 2 4 4 3 3 4 4 3 3 4 3 3 4 4 4 4 4 4 4 3
6 6 6 6 7 6 6 6 5 4 4 4 4 4 4 4 4 4 5 4 3 3 3 2 3 4 3 3 4 4 4 3 3 3 3 3 4 4 4 4 4 4 4 3
6 6 6 6 7 7 6 6 5 4 4 4 4 4 4 4 4 4 4 3 2 3 3 3 4 3 3 3 6 5 4 3 3 3 3 3 3 3 3 4 4 3 3 4
6 6 7 7 6 6 6 5 5 5 4 4 4 3 3 4 3 3 4 3 3 3 4 3 2 1 3 5 5 4 4 4 4 3 3 3 3 3 3 4 4 4 4 3
5 6 6 6 6 6 5 5 5 5 4 4 3 3 3 4 3 4 3 2 2 3 4 2 2 2 5 5 3 3 3 3 3 3 3 3 3 4 4 4 4 4 4 4
5 5 5 5 5 5 5 5 5 4 4 3 3 3 3 3 3 3 3 2 2 3 3 1 1 3 6 4 2 2 2 3 3 3 3 3 3 3 3 3 4 4 4 4
5 5 5 5 4 4 4 4 4 3 3 3 3 3 3 3 3 3 3 2 2 3 3 1 3 5 5 2 2 2 3 2 2 3 2 2 2 2 3 3 4 4 3 3
4 4 3 4 4 4 3 3 3 3 3 3 3 3 3 3 3 3 2 2 2 3 3 2 2 3 3 2 2 2 2 1 2 3 2 2 3 3 3 3 4 3 3 2
4 3 3 3 3 4 4 3 3 3 3 3 3 3 3 3 3 3 3 2 2 2 2 1 1 2 2 2 1 1 1 1 2 2 2 2 2 2 2 3 3 3 3 2
Wind_Direction
263 269 265 259 257 249 247 259 266 275 281 309 338 327 325 323 234 189 178 170 166 167 160 153 149 148 153 159 159 161 165 171 181 185 183 187 193 204 212 217 220 221 225 228
255 246 250 254 262 258 254 265 267 274 282 332 328 327 330 313 246 210 189 173 168 171 169 165 162 163 164 163 160 167 173 175 174 180 185 188 197 205 208 218 227 225 227 230
253 243 250 246 264 264 251 263 276 279 302 324 327 337 339 334 253 231 212 182 170 173 174 169 166 166 170 166 164 172 177 179 179 186 189 198 204 203 211 221 227 229 230 230
256 247 242 174 13 312 273 289 312 316 327 324 326 332 351 24 27 350 342 210 168 164 162 167 161 162 166 163 166 173 175 182 186 192 196 200 208 216 227 228 226 231 233 229
251 246 230 160 351 321 283 265 343 327 331 334 331 282 91 48 31 16 9 19 106 156 160 158 158 161 162 163 167 172 175 183 192 199 201 205 217 232 237 233 229 230 232 232
247 250 247 14 352 318 267 224 26 347 329 327 308 283 49 35 21 28 28 38 115 150 150 153 157 162 167 168 170 181 185 192 194 204 208 212 221 236 238 240 238 235 231 234
250 248 219 4 338 299 251 3 357 346 344 335 338 344 355 360 15 24 27 28 123 155 161 164 164 168 180 182 186 192 188 187 189 203 215 217 221 225 236 245 250 252 245 238
253 245 245 14 10 4 357 352 350 351 352 350 346 338 341 357 18 22 17 8 37 169 169 170 176 182 189 193 194 190 186 191 198 213 224 212 228 235 237 247 247 246 242 248
315 21 36 22 19 13 353 351 353 346 347 344 329 321 325 334 346 358 358 353 293 210 190 185 190 196 195 193 194 192 194 203 212 219 230 230 229 232 235 240 249 247 243 248
261 85 19 8 7 1 344 342 341 336 333 329 325 318 315 313 318 311 312 316 290 235 207 196 201 210 206 194 197 200 205 207 215 220 224 227 242 242 248 248 252 254 257 258
274 323 330 345 344 340 331 332 332 330 326 323 321 318 314 311 315 314 324 314 294 272 236 209 205 213 212 202 203 207 212 215 219 223 227 229 239 255 259 260 267 269 267 266
308 326 308 317 323 322 320 320 321 321 324 323 321 319 316 315 315 309 308 303 293 278 257 226 215 215 215 214 213 218 219 220 226 233 232 235 236 234 253 265 253 257 268 276
314 315 312 309 309 312 309 313 315 316 316 316 318 313 310 316 315 309 299 286 283 276 262 249 236 229 224 227 227 231 236 235 238 239 236 239 239 244 245 240 241 244 246 253
309 305 302 309 313 315 313 314 314 314 316 316 318 320 318 319 320 311 302 292 284 275 261 252 249 246 234 231 234 236 240 235 242 242 241 243 245 247 249 254 250 243 229 228
314 308 305 312 315 318 317 315 315 315 321 325 324 317 316 316 314 312 309 306 299 286 277 267 261 259 248 239 240 243 243 238 242 251 248 244 244 246 249 252 259 259 249 205
309 311 316 316 317 318 320 321 319 319 319 312 312 310 310 308 304 305 308 302 287 283 282 274 269 266 256 244 243 243 242 244 254 251 247 243 239 240 243 249 256 261 261 263
309 317 321 317 314 317 319 317 314 308 305 301 302 305 302 300 301 301 299 300 295 282 276 268 266 263 253 244 246 249 243 219 224 244 247 249 248 245 247 252 255 259 262 267
305 307 308 306 307 310 313 310 303 296 294 298 301 300 298 298 299 301 301 300 298 289 282 275 272 264 249 245 253 257 250 238 226 239 247 250 256 250 246 248 252 258 264 243
309 308 306 303 303 308 312 309 303 296 292 292 296 298 298 301 301 301 298 290 286 284 287 282 265 253 251 253 260 248 248 241 235 238 244 245 248 250 250 252 255 256 259 259
323 323 323 319 315 313 310 307 302 299 301 299 294 294 295 297 298 299 298 286 289 305 304 294 262 255 249 240 256 247 241 237 232 235 246 246 249 254 256 257 258 257 261 262
327 328 328 326 320 316 315 315 310 306 305 299 294 294 298 301 301 302 296 299 322 330 306 268 251 259 262 257 244 243 240 238 231 232 244 252 255 256 261 266 267 265 263 262
326 326 326 325 322 320 320 319 318 314 309 300 297 302 302 298 299 299 297 303 315 333 299 285 285 334 300 268 241 240 237 238 238 234 238 251 259 266 269 273 271 270 270 270
324 324 325 327 326 322 318 317 320 319 314 305 299 296 298 304 303 295 299 321 320 325 305 326 358 311 276 255 249 245 242 247 252 248 244 248 255 261 267 270 273 277 277 276
323 325 326 326 324 324 327 330 329 324 319 312 310 304 298 298 299 301 317 338 327 304 310 7 329 267 258 254 253 252 248 247 251 253 252 255 261 268 273 276 278 278 278 283
327 324 327 330 327 328 330 328 329 330 326 333 330 323 318 319 313 316 318 323 328 285 297 254 218 242 251 261 252 251 248 257 277 280 274 278 273 269 274 280 282 285 291 293
330 325 332 326 329 327 325 328 335 339 342 344 342 340 336 328 318 314 301 298 308 291 284 276 247 245 262 264 257 265 277 262 248 257 273 277 276 280 289 297 302 306 309 314
332 334 325 327 340 342 340 342 343 344 347 347 347 339 328 322 319 326 330 325 310 304 319 308 287 277 287 301 312 290 274 271 275 284 289 291 296 300 303 302 308 312 312 316